Location: Friaudour
(46.0460°N, 1.2873°E)
Time: 19:35:21
(UTC+00:00)

Cosmos 1238 Rocket - Pass Details

Date: 14 July 2020
Orbit: 374 x 1030 km, 82.9° (Epoch: 14 August)

Event Time Altitude Azimuth Distance (km) Brightness Sun altitude
Exits shadow 00:50:00 48° 204° (SSW) 996 3.6 -21.4°
Maximum altitude 00:51:26 76° 278° (W) 766 3.4 -21.4°
Drops below altitude 10° 00:56:02 10° 5° (N) 2,051 6.9 -21.2°
Sets 00:58:05 0° 7° (N) 2,865 8.0 -21.1°
